[[{"header":{"parameterUnit":"m.s-1","parameterCategory":1,"la1":30.2991,"la2":30.254,"lo1":-89.0895,"lo2":-89.0444,"dy":0.0017,"dx":0.0017,"nx":28,"ny":28,"refTime":"2023-07-19T09:00:00:Z","depth":0,"parameterNumber":2,"parameterNumberName":"U-component_of_WINDS"},"data":[0,0,0,0,0,0,0,0,0,0,0,0,0,0,0,0,0,0,0,0,0,0,0,0,0,0,0,0,0,0,0,0,0,0,0,0,0,0,0,0,0,0,0,0,0,0,0,0,0,0,0,0,0,0,0,0,0,0,4.9632,4.9633,0,4.9754,4.9755,4.9757,4.9716,4.9714,4.9711,4.9709,4.9829,4.9834,4.984,0,0,0,0,0,0,0,0,0,0,0,0,0,4.9357,4.9362,4.9632,4.9633,4.9635,4.9754,4.9756,4.9757,4.9717,4.9714,4.971,4.9707,4.9827,4.9833,4.984,0,0,0,0,0,0,0,0,0,0,0,0,0,4.9477,4.9364,4.9631,4.9629,4.963,4.9754,4.9756,4.9758,4.9718,4.9714,4.971,4.9706,4.9825,4.9833,4.9841,4.9972,0,0,4.9867,4.9871,0,0,0,0,0,0,0,0,4.947,4.9487,4.9628,4.963,4.9631,4.9716,4.9702,4.9829,4.9719,4.9684,4.9709,4.9704,4.9794,4.9805,4.9836,4.9978,4.9983,4.9868,4.9873,4.9877,4.9879,0,0,0,0,0,0,0,4.9462,4.9482,4.968,4.963,4.9632,4.962,4.9633,4.9726,4.976,4.9687,4.9684,4.97,4.9794,4.9828,4.9839,4.9985,4.9868,4.9875,4.988,4.9884,5.0236,5.024,0,0,0,0,0,0,4.9454,4.9475,4.9676,4.9684,4.9539,4.9628,4.9642,4.9693,4.9759,4.9765,4.9703,4.9697,4.9816,4.9829,4.9843,4.9997,4.9876,4.9884,4.9889,5.0232,5.0237,5.0242,0,0,0,0,0,0,4.9448,4.9472,4.9671,4.9579,4.9603,4.9637,4.9694,4.9697,4.9731,4.9771,4.9776,4.9732,4.9813,4.9831,4.994,5.0001,4.9888,4.9896,5.0227,5.0234,5.024,5.031,0,0,0,0,0,0,4.944,4.947,4.9522,4.958,4.9608,4.9768,4.9698,4.9702,4.9747,4.974,4.9799,4.9805,4.9811,4.9928,4.9948,5.0011,4.9903,5.0222,5.023,5.0238,5.0302,5.0318,5.0331,0,0,0,0,0,4.9431,4.9537,4.9525,4.9549,4.9674,4.9772,4.9788,4.9794,4.9752,4.9802,4.9828,4.9803,4.9992,4.9939,4.9962,5.0028,5.0218,5.0228,5.0237,5.0295,5.0315,5.0331,0,0,0,0,0,0,4.9483,4.9544,4.9532,4.966,4.9712,4.9765,4.9829,4.9815,4.9878,4.9869,4.9873,4.9886,4.9998,5.0024,4.9964,5.0156,5.0098,5.0113,5.0135,5.0153,5.0168,5.0157,4.991,0,0,0,0,0,4.951,4.9587,4.9635,4.9744,4.977,4.9796,4.9839,4.9839,4.9891,4.9912,4.9945,4.9995,5.0065,5.0111,5.0178,5.0307,5.0317,5.0363,5.0378,5.039,5.0401,5.0467,5.0487,5.0274,5.0274,5.0273,0,0,4.9566,4.9608,4.9656,4.9755,4.9795,4.9871,4.9814,4.9898,4.9953,4.9924,5.0029,5.0055,5.0111,5.0229,5.0283,5.0255,5.0463,5.0402,5.0411,5.0416,5.0479,5.0499,5.0517,5.028,5.0279,5.0278,0,0,4.9705,4.9747,4.984,4.9881,4.9942,4.9959,4.9981,5.0037,5.0053,5.0159,5.0138,5.0203,5.0325,5.0365,5.0401,5.0554,5.0532,5.0576,5.0651,5.0715,5.0732,5.0746,5.0797,5.0816,5.0588,5.0588,5.0589,0,4.9765,4.9882,4.9889,4.9975,5.0017,4.9996,5.0089,5.0128,5.0207,5.0236,5.0204,5.0354,5.0391,5.0516,5.0553,5.0585,5.0608,5.0568,5.0729,5.0744,5.0758,5.0806,5.0826,5.0593,5.0592,5.0592,5.0592,0,4.9951,5.0032,5.0099,5.0177,5.0228,5.0316,5.0335,5.0385,5.0381,5.04,5.0506,5.0549,5.0623,5.0653,5.0651,5.0778,5.0758,5.0728,5.0668,5.0783,5.0828,5.0847,5.0599,5.0598,5.0596,5.0595,0,0,5.0125,5.0206,5.023,5.0264,5.033,5.0391,5.0477,5.0551,5.0592,5.0648,5.0717,5.0821,5.0793,5.0834,5.0835,5.0892,5.1006,5.0855,5.0856,5.0877,5.1144,5.1163,5.1184,5.0994,5.0997,5.1,5.1137,0,5.0266,5.0419,5.0428,5.0566,5.0638,5.062,5.0694,5.0741,5.0761,5.0824,5.0845,5.0917,5.0877,5.0901,5.0957,5.098,5.1058,5.0971,5.1054,5.1057,5.1037,5.1209,5.1229,5.1357,5.1156,5.1159,5.1161,0,5.0451,5.0513,5.0658,5.0711,5.0742,5.0809,5.0875,5.0937,5.0989,5.0999,5.1045,5.1038,5.1123,5.1064,5.1179,5.1119,5.1155,5.1171,5.1176,5.1181,5.1113,5.1213,5.1398,5.1416,5.119,5.1187,5.1185,0,5.0558,5.0678,5.0779,5.0809,5.0875,5.0922,5.0951,5.0999,5.1042,5.11,5.1127,5.1194,5.123,5.1281,5.1291,5.1247,5.1405,5.1348,5.1412,5.1412,5.1443,5.144,5.1632,5.1473,5.1473,5.1473,5.1472,0,5.0712,5.08,5.0827,5.0889,5.0987,5.0996,5.1091,5.1117,5.116,5.1224,5.1213,5.1273,5.1285,5.1347,5.1356,5.1448,5.1465,5.1473,5.1473,5.1472,5.147,5.1492,5.1481,5.1478,5.1477,5.1476,5.1475,0,5.0846,5.0868,5.0977,5.103,5.1046,5.1115,5.1159,5.1217,5.1236,5.1318,5.1337,5.1366,5.1438,5.1455,5.1541,5.1546,5.1654,5.1648,5.1636,5.1634,5.1697,5.1689,5.1905,5.1932,5.176,5.1762,5.1763,0,5.0941,5.1009,5.107,5.1113,5.1144,5.1214,5.1258,5.1269,5.1315,5.1378,5.1427,5.1499,5.1556,5.1672,5.1699,5.1764,5.1756,5.1828,5.1766,5.1761,5.1752,5.1746,5.1751,5.1838,5.184,5.1841,5.1843,0,5.1106,5.1113,5.1177,5.1245,5.1298,5.1352,5.1403,5.1438,5.1456,5.1507,5.1582,5.1626,5.1714,5.1783,5.1848,5.1876,5.1861,5.1863,5.188,5.1877,5.1866,5.1868,5.1664,5.1857,5.1855,5.1854,5.1853,5.1853,5.122,5.1278,5.1329,5.14,5.144,5.1488,5.1544,5.157,5.1633,5.1706,5.1709,5.1789,5.1837,5.1923,5.1954,5.2015,5.1992,5.2019,5.2025,5.203,5.2033,5.186,5.2027,5.2027,5.2026,5.2026,5.2026,0,5.138,5.1412,5.1478,5.155,5.1605,5.159,5.1645,5.1691,5.1762,5.1809,5.1866,5.195,5.2017,5.205,5.2116,5.2158,5.2152,5.2174,5.2169,5.2174,5.2052,5.2028,5.2177,5.2177,5.2177,5.2177,5.2177,5.2177,5.1469,5.1565,5.1579,5.1693,5.1724,5.1803,5.1836,5.1878,5.1915,5.201,5.2066,5.2088,5.2128,5.2197,5.2256,5.2264,5.2287,5.2311,5.2315,5.2199,5.2183,5.2169,5.2146,5.2317,5.2317,5.2431,5.2432,5.2433]},{"header":{"parameterUnit":"m.s-1","parameterCategory":1,"la1":30.2991,"la2":30.254,"lo1":-89.0895,"lo2":-89.0444,"dy":0.0017,"dx":0.0017,"nx":28,"ny":28,"refTime":"2023-07-19T09:00:00:Z","depth":0,"parameterNumber":3,"parameterNumberName":"V-component_of_WINDS"},"data":[0,0,0,0,0,0,0,0,0,0,0,0,0,0,0,0,0,0,0,0,0,0,0,0,0,0,0,0,0,0,0,0,0,0,0,0,0,0,0,0,0,0,0,0,0,0,0,0,0,0,0,0,0,0,0,0,0,0,4.3029,4.303,0,4.3048,4.3048,4.3048,4.2979,4.2977,4.2975,4.2973,4.2991,4.2994,4.2996,0,0,0,0,0,0,0,0,0,0,0,0,0,4.2934,4.2936,4.3029,4.303,4.303,4.3048,4.3048,4.3048,4.298,4.2977,4.2975,4.2972,4.2991,4.2993,4.2996,0,0,0,0,0,0,0,0,0,0,0,0,0,4.2966,4.2936,4.3029,4.2998,4.2995,4.3047,4.3048,4.3048,4.298,4.2977,4.2974,4.2971,4.299,4.2993,4.2997,4.308,0,0,4.3008,4.3009,0,0,0,0,0,0,0,0,4.2964,4.297,4.3002,4.3,4.2997,4.3008,4.3021,4.3059,4.2981,4.2986,4.2973,4.297,4.2999,4.3002,4.3012,4.3081,4.3082,4.3008,4.301,4.3012,4.3013,0,0,0,0,0,0,0,4.2962,4.2968,4.3037,4.3003,4.3,4.2982,4.2983,4.3028,4.301,4.2985,4.298,4.2983,4.2997,4.3009,4.3012,4.3082,4.3008,4.3011,4.3013,4.3015,4.3218,4.3221,0,0,0,0,0,0,4.2964,4.2967,4.3036,4.3037,4.2973,4.2986,4.2988,4.3008,4.3009,4.3006,4.2986,4.298,4.3004,4.3008,4.3012,4.3109,4.3012,4.3015,4.3017,4.3215,4.3219,4.3222,0,0,0,0,0,0,4.2962,4.2971,4.3035,4.3001,4.3007,4.2991,4.3014,4.301,4.3021,4.3009,4.3006,4.3001,4.3002,4.3007,4.3063,4.3108,4.3017,4.302,4.3211,4.3216,4.3221,4.3303,0,0,0,0,0,0,4.296,4.2971,4.3003,4.3002,4.301,4.3087,4.3017,4.3012,4.3027,4.302,4.3023,4.302,4.3,4.3058,4.3067,4.3112,4.3023,4.3207,4.3213,4.3219,4.3296,4.331,4.3322,0,0,0,0,0,4.2957,4.3026,4.3005,4.3014,4.305,4.3089,4.3094,4.3069,4.3031,4.3063,4.3055,4.302,4.3102,4.3065,4.3074,4.312,4.3204,4.3211,4.3219,4.329,4.3307,4.3322,0,0,0,0,0,0,4.3033,4.3025,4.3002,4.3073,4.3082,4.3078,4.3117,4.3088,4.3109,4.3101,4.3069,4.3071,4.3132,4.3132,4.309,4.32,4.3146,4.3156,4.3198,4.3214,4.3227,4.3225,4.3026,0,0,0,0,0,4.3058,4.3091,4.3083,4.3146,4.3152,4.3134,4.315,4.313,4.3139,4.3143,4.3139,4.3149,4.3176,4.3195,4.322,4.3296,4.3295,4.3332,4.3345,4.3356,4.3364,4.3402,4.3418,4.3246,4.3246,4.3246,0,0,4.311,4.311,4.3133,4.3161,4.3166,4.3201,4.3138,4.3177,4.3202,4.3149,4.3201,4.3199,4.3207,4.3273,4.3302,4.3274,4.3411,4.3365,4.3374,4.3376,4.3411,4.3428,4.3442,4.3251,4.325,4.325,0,0,4.3222,4.3226,4.3278,4.3284,4.3292,4.328,4.3292,4.3292,4.3288,4.334,4.33,4.3329,4.3378,4.3385,4.3395,4.3508,4.3476,4.3517,4.3584,4.3622,4.3635,4.3647,4.3686,4.3701,4.3525,4.3525,4.3526,0,4.3286,4.3337,4.3309,4.3351,4.3364,4.3316,4.3368,4.3375,4.3391,4.3401,4.337,4.3429,4.3432,4.3497,4.3525,4.3535,4.3547,4.3516,4.3636,4.3647,4.3658,4.3695,4.371,4.353,4.353,4.3529,4.3529,0,4.3414,4.3449,4.349,4.3506,4.3524,4.3571,4.3549,4.357,4.3549,4.3539,4.3591,4.3592,4.3616,4.363,4.361,4.3693,4.3676,4.3641,4.3586,4.368,4.3714,4.3728,4.3537,4.3536,4.3534,4.3533,0,0,4.3575,4.3574,4.3589,4.3595,4.36,4.3626,4.3671,4.3693,4.3711,4.3724,4.3759,4.38,4.3768,4.3779,4.3759,4.3792,4.388,4.3753,4.3753,4.3776,4.397,4.3995,4.4012,4.3859,4.3861,4.3863,4.3969,0,4.3684,4.3759,4.3735,4.3811,4.3842,4.3797,4.3835,4.3841,4.3833,4.3858,4.3849,4.3879,4.3834,4.384,4.3871,4.3863,4.3918,4.3855,4.389,4.3892,4.3889,4.403,4.4057,4.4157,4.3982,4.3984,4.3986,0,4.3822,4.3838,4.3917,4.3915,4.3927,4.3962,4.398,4.4005,4.4011,4.4002,4.4014,4.3987,4.4029,4.3974,4.4031,4.3988,4.4001,4.3999,4.4003,4.4004,4.3944,4.4035,4.4188,4.4203,4.4007,4.4005,4.4003,0,4.393,4.3972,4.4024,4.4031,4.403,4.4055,4.4056,4.4058,4.4073,4.4089,4.4097,4.4118,4.4129,4.4145,4.4123,4.4086,4.4183,4.4127,4.4176,4.4177,4.4198,4.4197,4.4355,4.4209,4.4208,4.4208,4.4208,0,4.4054,4.4103,4.4073,4.4105,4.4159,4.4129,4.4183,4.4179,4.4182,4.4211,4.4174,4.4202,4.4172,4.4198,4.4181,4.423,4.4235,4.4229,4.4224,4.4232,4.4233,4.4239,4.4232,4.4212,4.4211,4.421,4.421,0,4.4183,4.4165,4.4219,4.4213,4.4212,4.4252,4.4246,4.4275,4.4264,4.4302,4.4309,4.4291,4.4319,4.4299,4.4328,4.4316,4.438,4.4365,4.4378,4.4373,4.4423,4.4418,4.459,4.4611,4.4452,4.4454,4.4455,0,4.4263,4.43,4.4298,4.4315,4.4318,4.4346,4.436,4.4332,4.4349,4.4357,4.4385,4.441,4.4428,4.4475,4.4464,4.4485,4.447,4.4529,4.4473,4.448,4.447,4.4468,4.447,4.454,4.4542,4.4544,4.4545,0,4.4406,4.4395,4.4417,4.4436,4.4454,4.4467,4.4478,4.4494,4.4465,4.4486,4.4513,4.4528,4.4556,4.458,4.4597,4.4597,4.4566,4.4563,4.4575,4.4583,4.4588,4.4585,4.4407,4.4559,4.4557,4.4556,4.4556,4.4555,4.4513,4.4543,4.4545,4.457,4.4575,4.4585,4.4612,4.4603,4.4626,4.4646,4.4628,4.4662,4.4665,4.4684,4.4688,4.4713,4.4689,4.4707,4.4712,4.4716,4.4723,4.4585,4.4716,4.4716,4.4716,4.4715,4.4715,0,4.4653,4.4652,4.4675,4.469,4.471,4.4679,4.4688,4.4707,4.4736,4.4742,4.476,4.4792,4.4815,4.4806,4.4826,4.4848,4.4834,4.4854,4.4852,4.4852,4.4744,4.4731,4.4865,4.4865,4.4865,4.4865,4.4865,4.4865,4.4728,4.4776,4.4765,4.4815,4.4813,4.4845,4.4853,4.4862,4.4866,4.4903,4.4922,4.4915,4.4915,4.4935,4.4954,4.4951,4.496,4.4985,4.4976,4.4875,4.486,4.4846,4.4833,4.4987,4.4987,4.5082,4.5083,4.5084]}]]